Fort Eustis, VA

7:41 PM EST on November 16, 2019 (GMT -0500)
Felker Army Air Field

Weather History for KFAF - September, 2019

Change the Weather History Date:

Monday, September 30, 2019

  Actual Average Record
Temperature  
Mean Temperature 74 °F -  
Max Temperature 79 °F 74 °F 87 °F (1998)
Min Temperature 69 °F 57 °F 50 °F (2003)
Cooling Degree Days 8    
Growing Degree Days 24 (Base 50)    
Moisture  
Dew Point 63 °F    
Average Humidity 72    
Maximum Humidity 85    
Minimum Humidity 57    
Precipitation  
Precipitation 0.00 in - - ()
Sea Level Pressure  
Sea Level Pressure 30.20 in    
Wind  
Wind Speed 3 mph ()    
Max Wind Speed 12 mph    
Max Gust Speed -    
Visibility 10.0 miles    
Events      
Averages and records for this station are not official NWS values.
T = Trace of Precipitation, MM = Missing Value Source: Averaged Metar Reports

Daily Weather History Graph

Daily Weather History Graph

Search for Another Location

Airport or City:

Astronomy

Sep. 30, 2019 Rise Set
Actual Time 7:00 AM EDT 6:51 PM EDT
Civil Twilight 6:34 AM EDT 7:17 PM EDT
Nautical Twilight 6:04 AM EDT 7:47 PM EDT
Astronomical Twilight 5:34 AM EDT 8:17 PM EDT
Moon 9:00 AM EDT (9/30) 8:28 PM EDT (9/30)
Length of Visible Light 12h 42m
Length of Day
11h 50m
Waxing Crescent, 5% of the Moon is Illuminated
Sep 30
Waxing Crescent
Oct 5
First Quarter
Oct 13
Full
Oct 21
Last Quarter
Oct 27
New

Hourly Weather History & Observations

Time (EDT) Temp. Dew Point Humidity Pressure Visibility Wind Dir Wind Speed Gust Speed Precip Events Conditions
12:56 AM 72.1 °F 67.3 °F 85% 30.22 in 10.0 mi Calm Calm - N/A   Partly Cloudy
1:56 AM 72.0 °F 67.1 °F 85% 30.21 in 10.0 mi East 3.5 mph - N/A   Mostly Cloudy
2:56 AM 72.0 °F 67.1 °F 85% 30.20 in 10.0 mi Calm Calm - N/A   Clear
3:56 AM 72.0 °F 66.7 °F 84% 30.20 in 10.0 mi Calm Calm - N/A   Overcast
4:56 AM 72.5 °F 66.6 °F 82% 30.20 in 10.0 mi ENE 3.5 mph - N/A   Overcast
5:56 AM 72.5 °F 66.4 °F 81% 30.20 in 10.0 mi NE 4.6 mph - N/A   Overcast
6:56 AM 72.9 °F 66.2 °F 80% 30.21 in 10.0 mi Calm Calm - N/A   Overcast
7:56 AM 72.7 °F 66.2 °F 80% 30.23 in 10.0 mi ENE 4.6 mph - N/A   Mostly Cloudy
8:56 AM 74.5 °F 64.8 °F 72% 30.23 in 10.0 mi ENE 5.8 mph - N/A   Mostly Cloudy
9:56 AM 75.2 °F 64.2 °F 69% 30.23 in 10.0 mi East 6.9 mph - N/A   Mostly Cloudy
10:56 AM 76.8 °F 64.0 °F 65% 30.24 in 10.0 mi ESE 5.8 mph - N/A   Mostly Cloudy
11:56 AM 76.8 °F 63.7 °F 64% 30.24 in 10.0 mi East 8.1 mph - N/A   Mostly Cloudy
12:56 PM 78.1 °F 64.0 °F 62% 30.23 in 10.0 mi East 6.9 mph - N/A   Mostly Cloudy
1:56 PM 78.1 °F 62.1 °F 58% 30.21 in 10.0 mi East 11.5 mph - N/A   Mostly Cloudy
2:56 PM 77.2 °F 61.7 °F 59% 30.20 in 10.0 mi East 5.8 mph - N/A   Mostly Cloudy
3:56 PM 75.9 °F 59.5 °F 57% 30.19 in 10.0 mi East 8.1 mph - N/A   Mostly Cloudy
4:56 PM 74.7 °F 60.3 °F 61% 30.18 in 10.0 mi East 8.1 mph - N/A   Mostly Cloudy
5:56 PM 73.8 °F 60.8 °F 64% 30.17 in 10.0 mi East 5.8 mph - N/A   Mostly Cloudy
6:56 PM 72.5 °F 60.1 °F 65% 30.17 in 10.0 mi ESE 9.2 mph - N/A   Scattered Clouds
7:56 PM 71.2 °F 60.1 °F 68% 30.18 in 10.0 mi East 4.6 mph - N/A   Scattered Clouds
8:56 PM 70.5 °F 60.6 °F 71% 30.18 in 10.0 mi East 4.6 mph - N/A   Scattered Clouds
9:56 PM 69.8 °F 60.3 °F 72% 30.19 in 10.0 mi East 3.5 mph - N/A   Partly Cloudy
10:56 PM 69.4 °F 60.8 °F 74% 30.19 in 10.0 mi East 3.5 mph - N/A   Mostly Cloudy
11:56 PM 69.3 °F 61.0 °F 75% 30.17 in 10.0 mi East 3.5 mph - N/A   Overcast